STARLINK-36705

Last updated on Tue Mar 10 2026 00:02:05 GMT+0000 (Coordinated Universal Time)

1 67712U 26025V 26068.30794245 .00105172 00000+0 69634-3 0 9990 2 67712 97.2861 179.9201 0001969 121.4684 238.6773 15.75222041 5884
UTC large
Height (km)
Speed (km/s)
/
Latitude / Longitude
Inclination (degrees)
Orbital Period (minutes)
Azimuth
Elevation
Range (km)
Doppler Factor

Next 0 passes for location: London (51.5072 / 0.1276)

Sorry there are no passes over London.